Location: Kumla
(59.1265°N, 15.1401°E)
Time: 04:49:15
(UTC+01:00)

Vanguard 2 Rocket - Pass Details

Date: 10 December 2023
Orbit: 555 x 3309 km, 32.9° (Epoch: 03 March)

Event Time Altitude Azimuth Distance (km) Brightness Sun altitude
Rises 13:35:54 0° 219° (SW) 5,962 13.0 5.2°
Reaches altitude 10° 13:40:33 10° 207° (SSW) 5,339 13.9 5.0°
Maximum altitude 13:52:39 25° 161° (SSE) 4,868 11.3 4.3°
Drops below altitude 10° 14:06:42 10° 117° (ESE) 6,257 11.1 3.4°
Sets 14:12:47 0° 106° (ESE) 7,174 11.3 3.0°
